Date,TemperatureHighF,TemperatureAvgF,TemperatureLowF,DewpointHighF,DewpointAvgF,DewpointLowF,HumidityHigh,HumidityAvg,HumidityLow,PressureMaxIn,PressureMinIn,WindSpeedMaxMPH,WindSpeedAvgMPH,GustSpeedMaxMPH,PrecipitationSumIn
2013-1-1,37.2,32.5,26.1,36.5,31.4,23.2,100,96,86,30.24,30.03,8,2,11,0.01
2013-1-2,36.0,26.8,20.7,25.0,19.9,15.8,89,76,53,30.26,30.17,6,1,8,0.00
2013-1-3,41.7,28.5,17.6,32.0,20.9,12.8,88,74,50,30.42,30.25,7,1,24,0.00
2013-1-4,46.2,32.9,19.8,28.0,21.9,16.0,90,66,37,30.45,30.32,10,1,14,0.00
2013-1-5,43.2,35.6,25.5,34.1,28.0,17.8,87,74,65,30.32,30.17,9,2,13,0.00
2013-1-6,45.3,32.5,22.1,29.3,22.0,14.6,91,68,34,30.36,30.23,9,2,12,0.00
2013-1-7,52.2,33.8,19.0,31.1,21.5,12.2,85,63,34,30.34,30.12,11,1,15,0.00
2013-1-8,60.3,41.4,23.5,47.0,34.1,17.5,100,77,51,30.21,30.04,8,1,13,0.08
2013-1-9,54.0,50.1,46.8,48.7,45.4,40.3,99,85,64,30.34,30.21,11,3,17,0.09
2013-1-10,61.2,51.5,46.8,57.1,48.4,42.2,95,89,74,30.22,29.82,9,4,15,0.05
2013-1-11,66.4,55.4,44.2,47.3,45.4,42.3,95,71,45,29.90,29.75,15,4,24,0.00
2013-1-12,59.0,44.7,30.6,51.8,37.7,27.2,92,78,44,29.95,29.77,14,4,19,0.25
2013-1-13,30.6,23.7,16.9,27.2,16.9,9.8,87,75,65,30.33,29.94,172,0,172,0.00
2013-1-14,33.4,22.7,14.9,12.7,10.0,7.3,76,59,37,30.44,30.30,10,1,13,0.00
2013-1-15,34.2,25.4,16.2,20.1,13.7,8.1,77,62,45,30.31,28.75,8,2,10,0.00
2013-1-16,42.4,26.8,14.2,20.6,14.2,7.5,81,61,35,30.19,30.09,7,1,11,0.00
2013-1-17,48.0,33.2,21.2,32.7,22.6,14.2,77,66,44,30.48,30.19,12,2,18,0.00
2013-1-18,57.0,37.8,20.7,31.9,24.4,15.5,86,62,31,30.50,30.21,12,2,17,0.00
2013-1-19,63.3,48.2,34.3,37.4,32.3,26.3,82,56,35,30.21,30.08,11,3,19,0.00
2013-1-20,61.7,42.7,27.9,38.1,29.5,17.3,90,63,33,30.26,30.11,14,2,17,0.00
2013-1-21,32.9,29.2,22.6,20.4,13.0,10.5,67,51,40,30.38,30.25,11,5,14,0.00
2013-1-30,33.3,31.0,30.9,26.5,24.7,24.4,78,77,75,29.85,29.79,17,9,27,0.01
2013-1-31,30.9,30.9,30.9,24.6,24.6,24.6,77,77,77,29.85,29.85,8,8,18,0.01
2013-2-24,60.1,51.1,30.7,37.2,33.6,26.5,84,53,36,29.99,29.83,7,2,14,0.00
2013-2-25,42.8,39.6,37.0,41.0,35.5,31.0,100,86,66,29.88,29.42,13,4,21,0.31
2013-2-26,37.2,34.1,32.4,36.5,32.4,30.8,100,94,86,29.88,29.37,13,5,21,0.05
2013-2-27,40.6,34.8,31.3,32.3,29.3,25.2,90,80,66,30.07,29.86,13,5,18,0.00
2013-2-28,36.1,32.8,28.9,27.3,26.2,24.3,88,77,64,30.18,30.06,11,5,15,0.00
2013-3-1,32.9,30.2,26.8,25.5,21.4,16.3,78,70,61,30.25,30.14,13,5,17,0.00
2013-3-2,39.2,30.2,22.1,22.4,19.1,14.4,79,64,42,30.31,30.19,12,4,17,0.00
2013-3-3,59.2,42.0,21.4,33.1,26.3,15.0,81,57,34,30.19,29.77,11,2,17,0.00
2013-3-4,66.2,54.3,44.6,48.9,41.8,32.3,92,63,49,29.87,29.61,14,3,20,0.00
2013-3-5,44.6,38.6,32.0,37.3,26.4,16.4,96,63,42,30.30,29.87,17,8,25,0.09
2013-3-6,48.9,35.4,24.4,28.7,21.1,15.6,72,57,35,30.40,30.22,11,2,15,0.00
2013-3-7,64.6,48.6,30.0,32.9,27.8,22.5,79,49,21,30.26,30.13,9,1,14,0.00
2013-3-8,63.9,52.6,38.5,40.5,36.4,31.8,81,56,39,30.24,30.03,11,2,14,0.00
2013-3-9,70.3,59.5,52.3,59.1,48.7,37.1,100,69,46,30.05,29.69,12,3,19,1.30
2013-3-10,56.1,44.1,30.6,55.9,43.3,27.2,100,97,87,29.95,29.66,14,4,24,0.58
2013-3-11,45.3,34.1,27.5,29.0,24.6,19.5,91,70,36,30.03,29.91,13,5,21,0.00
2013-3-12,56.1,38.2,26.8,34.1,27.0,17.7,88,68,26,30.22,30.02,11,2,17,0.00
2013-3-16,76.8,64.8,52.5,53.6,48.8,42.7,77,57,44,29.81,29.70,14,4,20,1.97
2013-3-17,52.3,45.2,41.7,45.4,42.9,40.2,100,92,71,29.82,29.62,12,4,21,0.18
2013-3-18,55.2,45.2,33.6,45.4,39.1,28.0,100,82,38,30.00,29.63,15,4,18,0.00
2013-3-19,57.7,43.7,30.0,33.3,26.3,16.2,93,56,22,30.20,29.96,13,2,18,0.00
2013-3-20,47.8,37.4,26.4,31.7,22.3,11.3,96,59,25,30.30,30.05,15,4,20,0.00
2013-3-21,43.7,35.3,30.9,35.4,24.8,9.4,100,70,25,30.06,29.74,8,3,14,0.27
2013-3-22,42.3,37.5,33.1,41.0,37.1,32.8,100,98,94,29.88,29.76,8,3,11,0.44
2013-3-23,42.3,39.1,36.9,42.0,38.7,36.1,99,98,97,29.85,29.65,7,3,11,0.01
2013-3-24,41.0,33.6,27.5,40.7,30.3,19.2,100,88,69,30.07,29.59,20,7,29,0.04
2013-3-25,34.9,28.9,24.1,23.7,20.2,16.9,84,70,55,30.27,30.04,14,5,21,0.00
2013-3-26,44.8,31.0,18.7,25.4,20.3,13.9,88,66,40,30.36,30.24,11,2,16,0.00
2013-3-27,63.1,43.9,24.1,34.7,25.1,18.4,85,53,22,30.26,30.07,10,2,14,0.00
2013-3-28,70.3,56.6,39.9,50.9,42.5,29.4,77,60,45,30.16,30.06,11,2,17,0.00
2013-3-29,69.4,58.9,51.8,58.2,54.2,48.3,100,85,64,30.15,30.04,8,1,9,0.41
2013-3-30,70.0,59.7,52.5,59.1,56.1,52.5,100,89,64,30.06,29.84,14,2,20,0.52
2013-3-31,68.7,58.9,45.0,55.9,46.4,36.7,100,67,33,29.94,29.85,11,3,14,0.01
2013-4-1,64.0,48.8,37.4,47.1,41.5,35.8,100,78,45,30.12,29.92,15,4,22,0.00
2013-4-2,44.2,38.7,36.3,38.9,36.2,31.6,100,91,68,30.20,30.11,10,4,14,0.44
2013-4-3,50.2,43.4,36.7,39.9,29.3,25.8,94,59,39,30.18,30.09,11,3,16,0.21
2013-4-4,57.7,47.3,39.7,42.1,37.0,25.9,100,71,34,30.11,30.00,13,2,17,0.01
2013-4-5,71.1,51.4,30.4,44.4,35.3,29.2,100,61,23,30.15,29.94,8,1,11,0.00
2013-4-6,75.0,63.1,51.6,50.9,45.7,38.3,74,54,37,29.94,29.76,19,4,25,0.00
2013-4-7,77.5,64.5,50.0,61.0,55.7,48.8,100,75,53,29.88,29.71,11,2,18,0.00
2013-4-8,72.0,66.6,60.3,63.3,60.1,56.2,97,80,70,29.77,29.68,11,2,19,0.32
2013-4-9,80.8,72.0,64.4,66.5,62.1,58.1,85,72,56,29.75,29.66,11,2,17,0.00
2013-4-10,73.9,47.9,37.0,66.2,46.5,36.1,100,95,73,29.85,29.68,12,4,20,0.01
2013-4-11,52.2,40.3,34.2,36.5,33.3,30.3,100,78,45,29.84,29.70,11,4,17,0.00
2013-4-12,56.7,43.7,31.5,40.4,33.2,28.1,96,69,44,29.98,29.76,13,3,20,0.00
2013-4-13,70.7,53.7,38.3,51.6,43.8,36.5,100,72,41,30.01,29.75,8,1,14,0.00
2013-4-14,78.8,67.8,55.0,54.5,50.6,46.6,77,56,37,29.76,29.50,13,3,18,0.00
2013-4-15,81.7,68.7,55.8,67.6,61.1,52.4,92,78,58,29.77,29.63,12,2,17,0.00
2013-4-16,80.4,63.5,53.1,67.0,58.9,51.8,100,86,62,29.94,29.77,11,2,14,0.00
2013-4-17,83.8,73.9,58.1,72.6,66.6,57.8,100,79,59,29.90,29.63,14,3,20,0.00
2013-4-18,75.2,49.1,38.5,68.7,45.7,30.6,100,88,68,29.96,29.51,15,5,22,0.00
2013-4-19,55.6,43.2,33.4,33.9,28.1,21.4,82,58,30,30.06,29.93,16,4,22,0.00
2013-4-20,68.9,51.9,33.6,42.6,36.5,31.0,100,61,26,30.16,30.03,7,1,10,0.00
2013-4-21,70.7,58.0,46.2,46.3,41.6,37.7,86,57,31,30.22,30.06,8,1,11,0.00
2013-4-22,73.9,60.2,46.0,47.7,43.3,39.2,81,56,34,30.14,29.85,9,2,13,0.00
2013-4-23,64.6,51.4,36.9,56.2,46.7,35.7,100,85,62,30.12,29.82,11,3,14,0.00
2013-4-24,53.8,42.2,34.7,36.1,32.4,25.2,97,71,34,30.32,30.11,11,4,14,0.00
2013-4-25,70.0,47.3,29.3,42.6,31.7,26.4,96,65,20,30.37,30.20,4,0,8,0.00
2013-4-26,59.0,52.2,48.9,52.0,47.7,36.5,100,86,44,30.32,30.11,9,2,14,0.00
2013-4-27,57.6,53.7,50.9,57.3,53.4,50.6,100,99,97,30.13,29.93,8,2,11,0.00
2013-4-28,75.6,59.9,50.5,55.9,52.1,49.2,99,79,43,30.04,29.89,8,1,10,0.00
2013-4-29,83.7,67.8,49.8,63.9,56.4,49.4,100,71,39,29.92,29.79,10,2,18,0.09
2013-4-30,82.2,72.7,60.3,58.5,53.0,46.4,84,53,30,29.88,29.81,9,2,15,0.00
2013-5-1,84.2,69.4,55.9,66.7,59.3,51.8,96,72,45,30.08,29.88,6,1,9,0.00
2013-5-2,60.4,48.6,33.6,59.1,47.1,33.4,100,95,87,30.26,30.05,13,4,21,0.01
2013-5-3,47.3,38.9,32.9,39.6,34.4,30.2,100,86,53,30.24,29.95,14,5,20,0.00
2013-5-4,45.0,39.9,35.6,40.0,37.2,34.5,100,90,78,30.01,29.84,11,2,14,0.00
2013-5-5,59.7,48.5,36.3,50.0,43.6,35.6,100,84,61,30.09,29.99,10,3,14,0.00
2013-5-6,64.4,54.3,46.9,54.9,50.9,46.5,100,89,69,30.10,30.01,8,3,11,0.00
2013-5-7,77.4,59.9,41.9,58.7,50.6,41.6,100,76,40,30.10,29.99,4,0,5,0.00
2013-5-8,80.6,66.0,52.0,62.7,57.0,51.5,100,75,43,30.07,29.91,8,1,13,0.01
2013-5-9,77.9,65.3,58.8,63.6,60.4,57.9,100,86,57,30.01,29.89,10,2,17,0.01
2013-5-10,69.4,63.3,56.7,62.5,58.8,54.1,100,86,66,30.07,29.90,11,2,14,0.00
2013-5-11,73.8,60.0,46.6,58.0,48.5,34.6,100,70,29,30.22,30.06,14,2,17,0.00
2013-5-12,67.8,54.1,37.9,49.0,40.3,31.1,100,65,29,30.28,30.14,8,1,13,0.19
2013-5-13,81.9,64.7,45.1,59.2,51.4,44.2,97,67,39,30.17,30.05,11,1,15,0.05
2013-5-14,87.3,74.1,62.2,61.6,55.4,51.1,75,54,31,30.08,29.96,9,2,14,0.00
2013-5-15,75.9,68.6,63.1,69.6,62.2,52.6,100,81,62,30.01,29.88,8,1,13,0.01
2013-5-16,71.6,65.2,60.8,66.7,63.6,60.8,100,95,81,29.91,29.83,2,0,5,0.01
2013-5-17,82.4,69.7,55.6,68.0,63.7,55.3,100,83,57,29.94,29.87,4,0,7,0.00
2013-5-18,85.5,75.3,63.9,76.5,70.7,63.0,100,86,69,29.93,29.81,7,1,11,0.00
2013-5-19,88.0,79.2,71.4,72.5,67.9,63.1,96,71,45,29.86,29.67,10,2,15,0.00
2013-5-20,79.5,72.2,61.2,72.1,67.4,60.7,100,85,75,29.86,29.70,17,1,36,0.05
2013-5-21,64.0,61.5,58.8,63.0,60.8,58.6,100,97,88,29.94,29.59,9,2,14,0.00
2013-5-22,75.9,63.9,51.8,62.6,57.7,51.8,100,82,55,29.95,29.81,9,1,13,0.00
2013-5-23,73.9,64.1,53.6,64.0,59.0,52.8,100,85,66,30.15,29.95,5,0,8,0.00
2013-5-24,77.9,67.4,57.4,64.8,59.0,54.0,94,75,60,30.27,30.14,4,1,9,0.00
2013-5-25,83.1,71.4,59.0,69.1,61.0,52.3,86,71,58,30.24,30.07,5,1,11,0.00
2013-5-26,82.9,73.8,63.1,70.4,65.8,60.7,100,78,56,30.13,29.99,8,1,12,0.00
2013-5-27,84.0,75.8,68.9,71.2,67.7,60.8,94,77,57,30.01,29.82,8,2,17,0.00
2013-5-28,83.8,76.6,72.3,69.4,66.8,63.5,85,72,58,29.90,29.78,10,2,17,0.00
2013-5-29,80.4,75.7,70.9,69.4,67.2,65.5,84,75,65,29.91,29.77,8,1,14,0.00
2013-5-30,79.2,71.3,62.8,71.0,66.7,61.6,100,86,71,29.89,29.73,17,2,36,0.14
2013-5-31,85.8,76.2,61.5,75.3,71.0,61.5,100,85,67,29.83,29.67,9,2,16,0.00
2013-6-1,78.1,69.0,64.6,73.8,66.9,64.3,100,93,78,29.93,29.70,13,2,25,0.00
2013-6-2,67.6,63.0,55.0,59.1,57.1,53.9,96,81,69,30.06,29.99,9,1,12,0.01
2013-6-3,82.2,64.9,48.4,64.2,57.4,48.1,100,79,51,30.07,29.91,5,0,8,0.00
2013-6-4,80.1,69.2,63.1,69.3,63.7,59.3,96,83,66,30.01,29.91,4,0,7,0.00
2013-6-5,78.8,69.1,60.6,71.1,65.3,60.4,100,88,68,30.03,29.87,9,1,13,0.00
2013-6-6,73.2,66.4,57.6,65.7,61.6,56.7,100,86,66,29.96,29.89,10,2,13,0.00
2013-6-7,76.1,64.9,52.0,61.9,55.9,51.8,100,76,48,30.00,29.91,9,1,12,0.00
2013-6-8,82.0,67.6,51.1,64.6,58.4,50.8,100,76,49,29.97,29.85,4,1,8,0.00
2013-6-9,82.4,73.6,63.5,68.1,62.7,57.2,89,71,44,29.93,29.86,8,1,11,0.00
2013-6-10,90.3,76.9,62.8,72.7,66.6,59.6,91,73,46,29.95,29.88,5,1,10,0.00
2013-6-11,92.3,82.3,69.8,72.6,69.8,67.1,92,68,45,30.02,29.93,9,1,13,0.00
2013-6-12,90.5,82.5,74.8,73.8,71.7,68.5,89,71,51,30.02,29.91,10,2,16,0.00
2013-6-13,88.5,80.2,69.3,74.4,71.2,67.9,100,76,53,30.04,29.95,4,1,7,0.00
2013-6-14,91.8,77.6,67.5,76.0,71.4,66.8,100,82,57,30.04,29.93,4,1,8,0.00
2013-6-15,91.4,78.1,69.6,76.5,71.0,52.8,100,80,57,30.06,29.96,9,1,12,0.00
2013-6-16,86.9,77.4,69.8,75.7,71.4,66.5,100,83,64,30.02,29.92,5,1,11,0.00
2013-6-17,74.7,69.9,66.7,72.1,68.5,66.3,100,95,85,29.99,29.88,7,1,9,0.00
2013-6-18,84.7,73.5,63.1,70.2,65.9,62.3,100,80,53,30.04,29.95,4,0,5,0.00
2013-6-19,87.8,75.4,61.3,71.8,65.5,61.4,100,74,46,30.07,29.97,4,0,8,0.00
2013-6-20,89.8,78.8,64.2,74.6,70.1,63.4,100,77,56,30.08,30.00,6,1,11,0.00
2013-6-21,91.4,83.3,75.7,75.5,73.4,71.4,90,73,53,30.10,30.01,7,1,13,0.00
2013-6-22,89.6,81.9,73.4,75.0,72.3,70.0,93,74,54,30.09,29.96,6,1,11,0.00
2013-6-23,90.5,80.6,70.7,75.1,71.9,68.7,100,77,51,30.03,29.93,8,1,16,0.00
2013-6-24,90.1,81.7,73.8,74.8,71.7,69.5,90,73,53,30.07,29.97,7,1,12,0.00
2013-6-25,88.5,82.7,76.1,74.3,71.3,68.6,87,69,53,30.00,29.87,7,2,14,0.00
2013-6-26,92.8,83.2,76.3,79.8,74.7,70.9,100,77,58,29.96,29.86,8,2,11,0.00
2013-6-27,95.9,84.2,71.2,77.6,74.6,70.7,100,76,49,30.00,26.97,5,1,7,0.00
2013-6-28,90.1,83.2,75.7,77.6,70.6,62.6,91,68,43,29.97,29.85,10,2,12,0.00
2013-6-29,86.0,75.2,61.0,64.1,58.4,53.5,100,60,34,29.91,29.81,14,3,22,0.00
2013-6-30,78.8,70.4,61.3,63.9,60.5,55.9,93,72,55,29.99,29.86,11,2,16,0.00
2013-7-1,80.8,70.3,58.6,63.2,57.1,46.6,100,67,32,30.05,29.96,12,1,16,0.00
2013-7-2,80.6,67.8,51.6,61.4,54.1,47.2,100,66,32,30.10,30.03,12,1,14,0.00
2013-7-3,86.4,68.8,52.0,62.9,54.7,46.8,100,67,29,30.13,30.01,4,0,8,0.00
2013-7-4,86.9,72.8,56.7,64.3,58.9,54.7,96,66,35,30.08,29.97,6,1,9,0.00
2013-7-5,90.3,76.0,58.6,66.2,60.7,57.6,100,63,35,30.06,29.95,7,1,11,0.00
2013-7-6,91.2,75.9,62.6,67.6,63.0,59.4,93,67,36,30.05,29.94,5,0,7,0.00
2013-7-7,92.8,79.7,67.5,71.5,67.0,61.8,96,68,38,30.06,29.99,5,1,8,0.00
2013-7-8,94.3,81.5,67.5,74.5,69.4,66.2,97,70,44,30.11,30.02,7,1,8,0.00
2013-7-9,95.5,83.7,72.1,73.4,71.1,69.7,93,68,44,30.11,29.98,6,1,12,0.00
2013-7-10,98.2,85.1,71.4,72.9,70.5,67.6,89,64,42,30.03,29.90,7,1,11,0.00
2013-7-11,95.5,82.6,69.3,75.5,69.9,64.2,100,69,40,30.02,29.92,4,0,8,0.00
2013-7-12,93.6,81.5,71.1,71.7,66.1,61.5,79,61,42,30.06,29.97,4,1,6,0.00
2013-7-13,89.6,76.7,61.9,63.9,61.3,57.7,95,62,39,30.06,29.97,4,0,7,0.00
2013-7-14,88.9,77.2,62.1,65.3,60.4,54.3,93,59,32,30.08,29.98,6,1,11,0.00
2013-7-15,91.6,79.6,70.3,71.5,67.6,63.0,97,69,44,30.19,30.06,7,1,10,0.00
2013-7-16,88.0,77.1,68.2,74.9,71.4,67.9,100,84,56,30.26,30.18,4,0,9,0.00
2013-7-17,94.3,86.4,73.0,72.8,69.8,66.9,86,59,43,30.32,30.20,4,1,6,0.00
2013-7-18,94.1,81.4,67.5,74.0,69.7,66.6,100,71,42,30.24,30.04,8,1,11,0.00
2013-7-19,93.7,80.2,70.0,73.6,70.1,67.8,94,73,44,30.08,29.95,10,1,11,0.00
2013-7-20,93.6,79.5,67.6,74.6,70.4,67.4,100,76,46,29.99,29.85,7,1,11,0.00
2013-7-21,85.3,75.8,69.6,78.0,72.7,68.0,100,90,74,29.97,29.85,5,0,8,0.00
2013-7-22,90.7,78.2,68.4,76.0,70.0,64.0,97,77,49,30.02,29.86,14,1,20,0.00
2013-7-23,95.9,84.8,72.3,78.1,73.8,71.2,96,71,47,29.94,26.88,9,2,14,0.00
2013-7-24,86.4,76.1,67.6,72.9,70.3,67.4,100,84,61,30.03,29.87,9,2,14,0.00
2013-7-25,87.1,76.4,66.2,74.0,70.4,65.9,100,83,53,30.10,30.03,4,0,5,0.00
2013-7-26,73.2,71.5,66.6,72.1,70.5,66.1,100,96,88,30.07,30.00,2,0,4,0.00
2013-7-27,81.0,71.6,63.1,69.3,64.1,59.8,100,80,50,30.07,29.97,8,1,13,0.00
2013-7-28,81.0,70.9,62.4,68.7,65.0,60.9,97,83,61,30.06,30.00,4,0,9,0.00
2013-7-29,87.1,77.5,67.3,75.9,71.4,65.8,100,82,65,30.07,30.00,6,1,11,0.00
2013-7-30,86.5,78.5,70.7,76.6,73.9,70.7,100,87,68,30.06,30.00,8,1,11,1.63
2013-7-31,87.3,80.6,73.4,76.9,73.7,71.0,100,81,62,30.08,30.00,11,1,15,3.98
2013-8-1,88.2,77.0,66.4,73.5,69.2,64.2,100,79,46,30.12,29.99,4,0,5,0.00
2013-8-2,87.8,79.1,70.7,79.5,74.3,69.1,96,86,73,30.02,29.90,5,0,8,0.00
2013-8-3,86.0,78.2,68.5,78.5,74.3,68.1,100,88,67,30.14,29.92,13,1,16,4.28
2013-8-4,78.6,75.4,73.2,76.7,74.1,71.5,100,96,84,30.14,30.01,4,0,8,0.08
2013-8-5,91.4,84.8,73.4,80.2,77.6,71.9,100,80,63,30.05,29.88,5,1,8,0.22
2013-8-6,93.9,83.6,74.5,79.2,76.2,71.3,94,79,57,29.94,29.83,5,1,8,0.00
2013-8-7,92.1,82.5,74.1,81.2,76.7,73.0,97,83,64,29.98,29.85,7,1,9,0.00
2013-8-8,84.2,76.0,68.0,76.6,73.0,67.7,100,91,71,30.02,29.87,14,1,21,4.33
2013-8-9,82.6,75.8,70.7,75.3,72.6,70.7,100,90,70,30.05,29.94,7,1,10,0.17
2013-8-10,82.8,76.3,70.5,74.9,72.1,70.4,100,87,72,30.12,30.04,5,1,9,0.00
2013-8-11,86.9,77.7,71.1,76.6,73.2,70.1,100,87,64,30.11,30.02,5,0,8,0.00
2013-8-12,84.2,75.6,70.9,77.1,72.9,69.7,100,92,74,30.10,29.97,14,1,19,0.00
2013-8-13,78.4,73.2,68.4,75.4,71.7,66.7,100,95,81,30.08,29.99,4,0,7,0.00
2013-8-14,77.7,70.3,61.0,67.0,63.3,59.5,100,80,55,30.16,30.07,4,1,8,0.00
2013-8-15,77.4,67.2,56.7,62.4,59.2,55.9,100,78,51,30.15,30.03,4,0,8,0.00
2013-8-16,77.4,67.5,60.4,63.6,60.9,59.0,96,80,58,30.14,30.05,4,0,8,0.00
2013-8-17,78.4,66.9,55.2,65.1,60.7,54.4,100,82,57,30.16,30.06,5,0,7,0.00
2013-8-18,81.9,66.6,59.4,69.5,63.4,59.1,100,90,54,30.16,30.07,3,0,4,0.00
2013-8-19,80.1,67.3,61.2,70.7,64.6,61.2,100,92,65,30.14,30.03,4,0,4,0.00
2013-8-20,83.8,69.4,61.5,72.5,65.4,61.5,100,88,53,30.12,30.04,4,0,6,0.00
2013-8-21,86.9,70.4,62.1,72.5,66.4,61.8,100,88,53,30.14,30.06,6,0,11,0.00
2013-8-22,84.7,71.3,64.2,73.6,68.5,63.2,100,91,66,30.14,30.03,4,0,7,0.00
2013-8-23,81.7,71.9,65.8,74.5,69.6,65.6,100,93,72,30.11,30.03,2,0,3,0.00
2013-8-24,73.2,70.8,69.3,70.4,69.9,69.0,100,97,90,30.13,30.07,1,0,2,0.00
2013-8-25,90.7,79.3,68.7,75.4,71.8,68.3,100,80,48,30.23,30.15,4,0,6,0.00
2013-8-26,90.7,78.5,69.4,75.7,71.4,68.2,100,81,52,30.23,30.12,3,0,5,0.00
2013-8-27,88.3,78.5,63.9,74.0,68.7,63.0,100,74,49,30.16,30.05,8,1,11,0.00
2013-8-28,90.3,77.5,65.7,74.9,70.3,65.4,100,81,51,30.11,30.04,7,1,12,0.00
2013-8-29,92.7,80.0,68.0,76.5,71.4,67.7,100,78,47,30.10,30.01,7,1,9,0.00
2013-8-30,93.4,81.2,69.6,77.8,72.2,69.4,100,77,47,30.04,29.91,8,1,12,0.00
2013-8-31,95.0,81.7,69.4,80.0,72.0,68.2,100,76,45,29.95,29.84,8,1,11,0.00
2013-9-1,91.2,78.2,71.6,74.9,71.7,68.7,96,82,52,29.94,29.83,6,0,11,0.00
2013-9-2,85.1,75.5,65.5,71.9,66.9,62.5,100,77,49,30.01,29.93,8,1,14,0.00
2013-9-3,86.0,71.7,57.2,70.8,61.6,56.9,100,75,39,30.08,29.99,5,0,11,0.00
2013-9-4,86.5,72.3,58.5,68.4,62.6,58.2,100,75,44,30.17,30.06,7,0,11,0.00
2013-9-5,86.5,72.5,58.5,67.9,62.8,58.2,100,75,44,30.20,30.10,5,0,8,0.00
2013-9-6,88.2,73.5,59.5,68.1,63.6,59.3,100,75,42,30.16,30.03,5,0,6,0.00
2013-9-7,93.0,76.9,61.9,72.4,66.4,61.6,100,74,41,30.07,29.96,7,1,9,0.00
2013-9-8,93.6,78.6,64.6,74.3,68.4,64.3,100,74,44,30.01,29.91,6,1,8,0.00
2013-9-9,94.8,78.9,65.5,72.2,67.2,64.0,100,72,37,30.04,29.95,7,1,8,0.00
2013-9-10,93.9,78.1,63.5,70.4,65.9,61.0,100,70,34,30.15,30.02,8,1,11,0.00
2013-9-11,91.2,78.0,66.4,73.2,68.3,64.7,100,75,43,30.17,30.06,6,0,7,0.00
2013-9-12,90.3,78.2,66.7,74.5,69.4,66.1,100,76,46,30.13,30.00,11,1,14,0.00
2013-9-13,82.4,73.4,62.2,69.2,57.6,52.0,89,60,37,30.10,29.99,7,1,9,0.00
2013-9-14,80.8,65.9,52.2,57.9,53.9,50.5,100,69,36,30.10,29.98,6,0,8,0.00
2013-9-15,88.2,72.0,55.9,70.1,60.3,53.4,94,69,44,30.08,30.00,6,1,9,0.00
2013-9-16,79.0,72.6,66.7,72.0,67.9,64.2,93,85,73,30.21,30.06,4,0,7,0.00
2013-9-17,85.3,74.7,67.1,72.7,67.8,65.0,97,81,54,30.15,30.02,3,0,5,0.00
2013-9-18,88.2,77.9,68.7,72.4,68.6,65.8,94,74,51,30.05,29.95,5,0,8,0.00
2013-9-19,90.9,78.3,68.4,74.8,69.3,65.6,93,75,47,30.02,29.90,6,1,12,0.00
2013-9-20,76.5,66.7,59.5,71.3,64.1,56.6,100,92,68,30.01,29.93,8,1,13,0.00
2013-9-21,75.2,60.9,47.1,58.0,51.5,46.9,100,76,38,30.04,29.93,8,0,15,0.00
2013-9-22,76.6,60.5,45.9,57.3,51.0,45.1,100,75,39,30.00,29.88,3,0,5,0.00
2013-9-23,79.3,63.4,48.9,58.9,54.2,48.5,100,76,42,29.95,29.81,4,0,7,0.00
2013-9-24,77.0,66.0,56.5,60.7,58.2,55.5,100,78,53,29.91,29.86,8,1,14,0.00
2013-9-25,79.0,64.6,51.4,63.5,58.6,51.2,100,84,53,29.91,29.83,6,1,9,0.00
2013-9-26,85.8,70.1,56.1,65.7,61.0,55.9,100,77,44,29.97,29.87,4,0,6,0.00
2013-9-27,85.1,71.9,59.0,66.8,62.1,58.7,100,74,46,30.03,29.92,4,1,10,0.00
2013-9-28,81.3,69.2,62.1,69.4,64.7,61.4,100,87,65,30.06,29.92,10,1,13,0.00
2013-9-29,75.0,64.4,56.1,62.1,58.9,54.1,100,84,49,30.07,29.93,5,0,9,0.00
2013-9-30,81.0,67.7,56.1,68.9,62.5,55.9,100,86,56,29.95,29.86,4,0,8,0.00
2013-10-1,84.4,73.2,64.6,72.8,68.0,64.3,100,85,59,30.01,29.90,4,0,8,0.00
2013-10-2,82.0,72.4,64.2,74.0,68.6,63.4,100,89,67,30.04,29.92,5,1,10,0.00
2013-10-3,84.0,74.3,66.4,72.3,69.2,66.1,100,85,63,29.96,29.87,7,1,13,0.00
2013-10-4,84.7,75.6,69.4,72.4,69.0,65.0,100,81,60,29.94,29.86,6,1,11,0.00
2013-10-5,73.8,57.9,46.8,71.9,57.0,46.5,100,97,88,30.08,29.90,9,1,14,0.01
2013-10-6,61.5,51.7,42.3,48.9,45.0,40.2,100,80,54,30.04,29.96,9,2,13,0.05
2013-10-7,69.3,53.9,40.1,53.0,45.6,39.8,100,78,39,30.16,30.02,8,1,11,0.00
2013-10-8,72.5,55.8,44.6,56.9,48.2,43.8,100,80,42,30.17,30.06,4,0,8,0.07
2013-10-9,75.0,59.3,43.5,55.0,50.6,43.5,100,77,39,30.14,30.03,3,0,6,0.00
2013-10-10,77.5,60.9,45.3,60.9,53.3,44.5,100,79,48,30.11,29.96,4,0,7,0.00
2013-10-11,75.9,74.2,69.4,67.9,66.4,65.1,87,77,71,29.92,29.87,8,2,17,0.00
2013-10-12,70.5,67.0,61.9,67.0,64.4,58.7,100,91,84,30.17,29.91,9,1,12,0.02
2013-10-13,72.3,64.6,58.6,58.7,54.2,49.7,86,70,56,30.32,30.17,4,1,8,0.00
2013-10-14,65.3,60.6,57.2,62.9,56.1,50.8,100,85,74,30.26,29.97,3,0,6,0.24
2013-10-15,65.8,60.0,52.7,65.7,58.5,49.9,100,95,84,30.07,29.90,8,1,11,0.35
2013-10-16,59.9,51.8,41.5,52.2,45.3,41.3,100,80,57,30.13,30.00,8,1,13,0.00
2013-10-17,60.3,46.5,39.9,49.6,44.4,39.7,100,94,60,30.08,30.01,5,1,8,0.01